Volver al catálogo

STARLINK-32235

ActivoComunicacionesVLEO
NORAD 60739·PAYLOAD·🇺🇸 United States

Lanzado Aug 28, 2024 desde Cape Canaveral Space Force Station

Loading…

Próximos Pases (próximas 24 horas)

TLE

ActualizadoSource: CelesTrak SupGP

Época: Sep 15, 2026, 01:55 UTC

1 60739C 24152V   26258.08034722  .00032714  00000+0  96661-3 0  2583
2 60739  53.1569 107.0308 0001303  81.8898 196.2076 15.34372197    18

Sigue STARLINK-32235 en tiempo real con AllMySat

Download on the App Store